Location: Igri�s
(42.2144°N, 0.4320°W)
Time: 09:02:19
(UTC+00:00)

Cosmos 2322 - Pass Details

Date: 13 August 2020
Orbit: 842 x 853 km, 71.0° (Epoch: 18 September)

Event Time Altitude Azimuth Distance (km) Brightness Sun altitude
Rises 22:15:41 0° 340° (NNW) 3,410 8.1 -28.0°
Reaches altitude 10° 22:18:14 10° 346° (NNW) 2,470 7.0 -28.2°
Enters shadow 22:23:30 48° 53° (NE) 1,098 4.2 -28.7°
